ECMWFFLT1_850_spd_132.txt.gz
Wind_Speed
11 12 13 13 12 10 9 7 6 5 4 4 5 8 9 9 7 8 9 9 10 10 10 9 10 11 11 12 12 13 14 14 15 16 18 18 19 19 17 16 18 20 21 22 22 22 22 24 26 26 25 25 23 24 24 23 24 26 26 25 24 25 24
13 14 14 14 12 10 7 6 5 4 4 5 6 6 6 7 7 8 9 9 9 9 9 9 10 10 12 13 14 15 15 15 15 16 18 18 18 18 18 18 19 19 20 21 21 20 20 23 26 26 26 25 23 25 25 23 24 25 26 25 24 25 25
14 13 13 13 11 9 7 6 5 5 5 6 6 6 6 7 8 9 9 9 9 9 10 11 11 11 11 12 13 14 14 15 15 16 17 17 17 18 18 19 20 20 21 22 21 21 21 23 24 26 27 24 24 26 25 24 25 25 25 25 25 24 24
13 11 11 11 10 8 8 7 7 6 6 6 6 7 9 10 11 11 10 10 8 8 9 10 11 11 11 12 13 14 15 15 16 16 17 17 17 17 17 18 19 20 21 22 22 21 22 24 25 27 29 26 25 25 23 23 23 22 22 22 22 21 22
12 12 11 11 10 9 8 7 7 7 6 6 7 8 11 12 12 11 9 7 7 6 8 8 9 11 11 12 13 13 14 14 14 15 15 16 16 17 17 18 19 19 20 21 22 22 22 23 24 27 29 26 25 23 21 22 23 22 21 20 20 20 22
11 12 12 13 12 11 9 8 8 8 8 8 9 11 13 13 10 8 4 4 4 4 5 7 9 9 10 11 12 12 12 12 13 14 14 15 15 17 18 18 18 19 21 22 22 21 21 21 22 25 26 24 22 23 23 22 22 21 21 20 20 21 22
12 11 12 12 11 11 11 11 10 10 11 11 11 13 13 10 6 4 2 3 4 5 6 7 8 7 8 10 10 10 11 11 12 13 14 15 16 17 17 17 19 20 21 21 20 19 20 21 21 23 25 24 24 25 24 22 19 19 20 20 20 21 21
12 10 10 11 12 12 12 12 12 13 13 13 13 11 8 5 4 3 3 3 4 5 6 7 7 7 8 8 8 8 10 10 12 13 14 15 16 16 16 18 19 20 19 19 19 19 19 21 22 22 22 23 25 27 26 22 19 18 19 19 21 20 20
14 11 10 11 12 12 11 12 12 13 13 13 11 8 4 3 4 4 3 4 5 6 6 7 7 7 8 8 8 8 8 9 11 12 13 15 15 16 17 17 18 19 18 17 18 20 21 21 21 20 19 20 23 26 26 25 23 21 19 19 20 19 19
16 14 12 11 10 10 11 11 9 10 11 9 7 5 3 3 4 5 5 5 5 6 6 6 7 7 8 7 7 6 7 8 10 11 13 15 14 15 16 16 16 18 17 16 18 19 20 21 19 18 19 19 20 22 23 25 25 24 21 19 20 19 18
17 15 12 9 8 8 8 8 7 7 7 4 4 3 2 3 5 5 4 4 5 5 5 6 7 8 8 8 7 7 7 8 8 10 13 14 14 13 14 14 15 16 15 15 17 18 18 19 17 17 18 19 19 20 21 23 26 25 22 21 21 20 20
14 12 10 9 8 6 5 6 7 6 4 3 3 3 1 3 4 4 4 4 4 5 6 6 7 8 8 8 7 8 9 9 8 9 12 13 13 12 12 12 14 15 16 15 16 16 17 17 17 17 17 17 17 18 19 20 25 26 24 24 24 21 21
11 10 10 9 8 9 8 6 5 4 4 4 3 2 1 2 3 4 4 4 4 5 6 6 6 7 7 8 8 8 8 9 9 9 11 11 12 13 12 14 16 17 18 18 16 15 15 15 15 16 16 16 16 16 17 17 22 26 25 24 24 22 21
11 10 9 9 9 10 8 6 5 4 5 5 3 2 1 2 3 4 4 4 4 5 6 6 6 7 7 8 9 9 9 9 10 10 11 12 13 14 15 16 17 17 18 17 17 16 14 14 14 14 15 16 16 15 16 16 19 23 23 21 20 19 20
10 9 10 11 12 10 9 9 7 6 5 4 2 1 1 3 3 3 3 3 4 5 6 6 7 7 8 8 9 10 10 10 10 12 13 14 15 16 17 17 17 17 17 16 16 15 15 15 14 14 14 14 15 15 15 16 17 20 21 20 19 19 20
9 8 10 12 12 11 10 9 7 5 4 3 3 2 3 3 3 3 3 4 5 6 6 7 7 8 8 9 9 10 10 10 10 12 13 15 17 18 18 18 18 18 18 18 17 15 14 15 14 15 15 14 15 15 14 15 16 18 20 20 19 19 21
7 8 11 12 11 9 8 7 6 5 4 4 4 4 4 4 4 4 5 6 7 7 8 8 8 8 9 9 9 10 10 10 10 11 13 14 17 18 18 19 19 19 18 18 18 16 15 14 14 15 15 14 15 15 14 13 14 16 18 20 20 19 19
7 9 11 12 11 9 8 7 6 5 5 6 6 6 6 6 7 7 8 8 8 8 8 8 8 9 9 9 10 11 11 10 10 12 12 13 16 17 17 18 18 18 19 18 18 17 17 16 15 15 16 15 15 15 14 13 13 14 16 18 19 18 17
8 10 11 11 9 8 8 7 6 6 7 7 8 8 8 9 9 8 8 9 8 8 9 9 9 9 9 9 10 11 11 11 11 12 13 13 14 16 16 17 17 17 19 21 21 21 19 18 17 16 16 15 15 14 13 12 12 13 14 15 16 16 15
11 13 12 10 9 8 7 7 7 8 9 9 10 11 11 10 9 9 9 9 9 9 9 9 9 9 9 9 10 11 12 12 12 13 14 14 15 16 16 17 17 17 20 23 24 24 22 21 20 19 18 17 15 14 13 12 12 12 12 13 14 14 13
15 14 11 10 9 8 8 8 9 10 10 11 12 12 12 10 10 10 9 9 10 10 10 10 10 11 11 10 11 12 13 13 13 12 13 14 15 15 15 16 17 17 19 22 24 25 24 24 22 21 20 19 17 15 13 13 13 12 12 12 13 12 11
15 13 11 11 10 9 10 11 11 11 11 12 13 13 12 11 11 11 10 10 10 10 10 11 12 14 14 13 13 13 13 14 14 14 14 14 15 15 15 16 17 17 18 20 22 23 24 24 24 24 23 21 19 17 16 15 15 15 14 13 13 12 11
14 13 12 10 10 11 12 12 12 11 12 13 14 13 12 12 11 11 11 10 11 11 12 13 14 15 14 14 13 13 13 13 13 13 13 14 14 15 14 14 16 17 17 18 19 21 22 24 27 27 26 24 23 21 19 18 18 17 17 17 16 15 13
13 13 12 11 11 12 12 13 11 11 12 14 14 13 13 13 12 12 11 11 11 11 12 13 13 13 13 13 13 13 13 13 12 12 12 12 12 13 14 14 15 16 16 16 17 18 19 22 27 29 28 26 25 24 23 22 21 20 20 20 19 17 17
14 13 12 12 12 13 13 12 11 11 13 14 13 13 13 13 13 12 11 11 11 12 12 12 12 11 12 13 13 14 14 14 15 15 14 13 13 13 14 15 15 15 14 14 14 15 16 20 23 26 28 28 26 26 26 25 25 24 24 23 22 21 21
14 13 13 13 14 14 13 12 11 12 14 13 12 12 13 13 13 12 11 11 11 11 12 12 11 11 11 12 12 13 14 14 15 15 15 15 14 13 13 13 14 14 13 14 15 15 16 18 19 20 25 28 28 27 27 27 27 27 27 26 26 25 24
15 14 14 14 15 14 13 12 12 12 12 11 11 12 12 11 12 11 11 11 10 11 12 12 11 12 12 12 11 11 12 12 13 14 14 13 13 12 11 11 12 13 13 14 16 16 17 17 17 17 21 25 27 27 27 27 27 28 27 27 27 25 23
16 15 15 16 16 15 14 13 12 12 11 11 10 10 10 10 11 11 11 11 10 11 12 12 12 13 13 12 11 10 11 12 13 14 13 12 11 10 11 11 11 11 11 13 14 14 15 16 17 18 19 20 24 27 28 27 27 27 28 28 27 26 23
18 16 16 17 17 16 15 14 12 11 11 10 9 9 9 9 10 11 11 10 10 11 11 11 12 12 12 12 11 12 12 12 14 14 13 13 13 12 13 12 11 10 9 9 10 9 11 14 16 19 20 20 22 26 29 28 27 27 27 27 27 26 24
19 18 17 17 17 16 15 13 12 11 10 9 8 7 8 9 9 9 10 10 9 10 11 10 11 10 11 11 11 11 11 12 14 14 15 16 17 17 18 17 16 14 11 8 6 5 6 11 14 17 20 21 23 24 24 24 25 25 26 27 26 25 24
19 18 18 18 17 16 14 13 12 10 9 9 8 7 7 9 10 9 9 8 7 7 9 9 10 9 9 9 9 8 7 8 11 14 16 18 19 20 21 21 21 21 18 13 9 7 7 11 14 16 18 21 23 23 21 19 20 21 22 24 25 25 25
19 19 19 19 18 16 15 14 13 11 10 10 10 8 7 9 11 9 8 7 6 5 6 8 9 8 9 9 9 8 7 6 8 12 16 18 19 20 21 21 21 22 22 19 16 14 15 17 19 20 20 20 21 22 20 19 19 20 20 22 23 24 25
19 19 19 18 17 16 15 15 14 12 12 12 11 9 8 9 9 8 7 6 6 6 6 6 7 8 7 6 4 5 8 9 10 13 15 17 18 20 20 21 21 21 22 22 21 21 22 22 23 22 22 21 21 20 19 19 20 21 23 25 25 25 26
19 19 19 19 18 17 16 15 14 13 12 11 11 10 10 10 9 9 8 7 7 8 7 7 7 8 8 5 1 3 8 11 12 13 16 17 18 19 20 20 20 20 21 22 22 22 23 23 22 22 22 22 21 19 19 20 21 22 24 26 27 28 28
19 19 19 19 19 18 17 15 14 12 10 10 12 12 12 11 11 11 11 10 10 11 11 10 10 10 11 9 5 4 8 11 12 13 16 17 18 19 19 19 20 20 21 21 21 20 21 22 22 22 21 21 20 20 20 21 23 24 25 25 26 27 28
20 20 19 18 19 18 16 14 13 12 12 12 14 13 12 13 13 13 13 13 13 13 13 13 13 12 13 12 11 9 9 10 12 13 16 18 18 18 18 18 19 21 22 23 21 19 18 19 20 21 21 20 20 20 20 21 23 24 25 26 27 28 27
21 20 18 18 18 16 15 14 14 13 13 13 14 13 13 13 13 13 14 14 14 14 14 14 14 14 13 12 12 12 12 12 12 14 16 18 18 17 17 18 18 19 20 21 21 21 19 17 17 18 20 20 20 20 21 22 22 22 22 25 27 27 27

ECMWFFLT1_850_spd_135.txt.gz
Wind_Speed
16 15 16 16 16 15 12 12 11 11 10 8 8 8 8 9 10 12 13 13 13 12 13 13 13 12 12 11 11 11 12 12 13 13 14 15 15 14 13 13 13 16 17 20 21 20 22 27 30 29 26 24 23 23 22 20 19 19 20 20 20 22 22
17 17 17 17 17 15 11 11 11 10 10 8 7 7 8 10 11 13 14 14 14 13 13 13 13 13 12 12 13 12 12 12 12 12 13 13 14 14 15 15 15 16 17 17 19 20 21 24 28 30 30 28 26 23 21 20 18 16 16 17 20 22 22
18 19 18 17 16 13 11 11 11 10 9 8 8 8 9 11 12 12 12 12 13 13 13 13 13 13 13 13 13 13 12 12 11 11 11 12 13 13 14 15 15 16 18 18 19 20 22 24 25 28 30 28 28 26 22 20 20 19 16 15 18 21 21
18 18 17 17 16 14 12 11 10 9 8 8 10 11 11 12 12 13 12 12 13 13 13 13 12 12 12 12 13 12 11 9 9 8 9 10 11 12 13 14 15 16 18 19 20 20 22 24 24 26 28 27 27 28 25 22 21 21 19 17 17 19 19
19 17 16 17 16 14 12 10 9 8 8 10 12 12 13 13 13 12 12 13 13 13 13 12 11 11 11 11 11 8 6 6 6 7 8 9 10 12 13 14 15 15 16 17 19 19 20 21 22 24 27 27 27 29 26 23 22 20 19 18 16 15 16
20 18 18 17 15 14 12 10 10 10 11 13 13 14 14 13 12 12 12 12 11 10 11 11 11 11 11 10 8 5 4 4 5 6 8 9 10 12 13 14 13 13 14 16 17 17 18 19 20 22 25 25 27 29 27 23 23 21 18 17 16 15 14
21 20 19 18 17 16 13 12 14 14 14 14 14 14 14 13 12 12 12 10 8 8 8 8 9 9 9 8 6 5 4 4 4 6 9 10 11 12 12 12 12 12 13 14 14 15 16 17 19 21 23 25 26 28 28 25 25 23 20 17 15 15 15
20 20 20 19 17 14 12 14 17 16 15 15 15 15 14 13 12 10 8 6 7 8 8 8 8 8 8 8 7 6 6 6 5 7 8 10 11 11 11 11 11 12 13 13 12 13 15 16 17 18 19 22 24 26 27 26 25 24 21 18 16 15 14
20 21 21 17 14 12 12 16 18 17 17 16 16 16 15 13 10 6 5 6 8 9 8 7 7 7 7 7 6 7 7 7 6 7 8 9 9 9 10 11 12 12 12 11 10 11 13 14 15 15 15 17 20 24 25 25 25 25 22 19 17 16 15
21 22 19 15 13 13 15 17 19 19 18 17 17 17 14 11 7 4 4 6 7 6 5 4 4 4 4 3 3 4 4 4 4 5 6 7 7 7 9 11 12 13 13 12 11 12 13 13 13 13 14 15 16 18 21 23 25 24 21 19 18 18 18
23 22 18 15 15 15 17 18 19 19 17 17 18 16 12 8 5 4 4 4 4 3 2 3 3 3 3 2 2 1 0 2 2 4 6 7 8 9 10 12 13 14 15 15 14 14 14 14 13 11 12 13 13 15 17 19 22 23 22 20 19 19 20
22 20 17 16 16 17 19 18 19 18 16 15 15 13 10 7 5 4 4 3 2 2 2 2 2 2 2 2 2 2 1 1 3 6 8 8 9 10 11 11 12 13 14 14 13 13 13 13 13 12 12 12 12 13 14 16 19 22 21 20 19 18 18
18 17 16 16 16 17 18 17 17 16 14 13 12 9 7 7 5 3 2 2 1 1 2 1 2 2 3 4 4 2 2 3 5 6 6 7 7 8 10 10 11 12 12 12 12 12 11 11 11 13 13 13 12 12 12 13 16 21 20 18 18 17 16
17 16 15 15 16 17 16 15 15 13 12 11 9 7 7 6 3 3 3 2 2 0 2 3 3 3 4 4 4 3 4 5 7 8 9 9 9 10 11 11 12 12 12 13 13 12 11 11 11 12 13 13 13 12 12 12 14 19 21 19 18 17 16
17 15 15 15 15 16 15 14 13 12 11 9 7 6 5 5 5 4 3 2 2 3 4 4 3 4 4 5 5 4 6 7 8 9 10 12 12 12 13 13 13 13 13 13 13 13 12 11 12 13 13 12 12 12 11 11 12 15 20 20 19 18 16
17 15 15 15 15 15 15 14 13 11 10 10 8 6 7 7 5 4 3 4 5 4 4 3 3 4 4 5 5 5 6 7 8 10 11 12 12 12 13 14 14 14 14 13 13 14 14 13 13 13 13 12 11 10 9 8 8 11 16 19 19 18 17
17 15 13 14 14 14 16 16 13 10 10 10 9 9 8 7 6 5 7 7 5 4 3 3 3 4 4 5 5 5 6 8 9 10 11 11 11 12 12 13 14 15 15 14 15 16 16 15 15 15 14 13 11 9 8 7 7 9 13 17 17 17 16
17 14 13 14 15 14 16 16 13 10 9 10 11 10 8 8 8 9 8 6 4 4 3 3 3 4 5 6 6 7 8 9 9 10 10 11 11 12 13 14 15 16 16 17 19 20 20 18 17 17 16 16 14 12 10 9 9 10 12 15 16 15 15
17 13 12 14 15 16 16 14 12 10 10 10 10 10 10 11 10 9 7 5 4 4 4 4 4 5 5 7 8 9 10 10 11 11 11 12 13 14 14 15 16 17 19 21 23 24 23 21 20 19 19 19 17 15 12 11 11 11 12 13 14 14 14
15 12 13 14 16 17 15 12 11 12 10 10 11 12 12 11 10 8 7 6 6 6 6 6 6 7 6 7 10 11 11 12 12 12 13 13 14 14 15 16 16 18 19 22 24 25 24 24 23 22 22 21 20 18 16 14 14 14 14 14 13 13 14
13 12 15 16 16 16 14 12 14 14 11 12 13 14 12 11 10 9 8 8 8 8 8 8 9 9 8 8 11 13 13 12 12 12 13 13 13 14 15 16 16 17 19 21 24 25 25 25 23 23 23 23 22 21 20 19 18 17 16 15 14 14 14
13 15 17 16 16 15 13 15 17 15 14 14 14 14 13 12 11 10 10 9 10 9 10 10 10 10 9 9 11 12 11 11 11 10 11 12 13 14 15 16 16 17 18 19 21 24 25 25 24 24 24 23 23 23 22 22 22 21 20 18 17 17 16
16 18 17 16 15 14 15 17 17 16 15 15 15 14 14 13 12 11 10 11 11 10 10 11 11 11 11 11 11 12 12 11 10 10 10 11 13 13 13 14 15 16 16 17 19 21 23 25 27 26 25 25 25 25 25 26 26 27 26 25 24 22 21
18 17 17 16 16 17 18 17 16 16 16 16 15 15 14 13 12 11 11 11 11 11 11 12 12 11 11 12 12 12 13 12 12 11 11 11 12 11 11 12 13 13 15 17 18 20 22 23 25 28 28 28 29 28 28 29 29 30 30 29 28 26 25
19 17 18 18 19 20 18 17 17 17 18 17 17 16 14 13 12 12 12 11 11 11 12 12 12 11 11 11 11 11 12 12 11 11 11 10 11 11 11 12 13 13 13 15 17 20 21 21 23 27 29 30 31 31 30 29 29 29 29 28 27 26 25
18 18 19 20 21 20 17 17 18 19 18 18 17 16 15 13 13 12 12 11 12 12 13 12 11 10 9 10 9 9 9 9 9 9 9 8 9 10 10 11 12 13 13 14 16 19 22 21 21 24 27 29 30 30 30 29 28 27 27 26 25 24 23
18 20 21 22 22 19 16 17 19 19 18 18 17 17 15 14 13 13 12 12 13 13 13 12 11 10 9 8 8 7 7 8 9 9 8 8 8 9 9 10 11 13 14 14 15 17 20 21 21 22 23 25 27 28 28 28 27 26 26 25 24 22 21
20 22 23 23 21 18 16 18 18 18 18 17 16 16 15 14 14 13 13 13 13 13 13 12 10 10 10 9 9 9 9 9 9 11 11 11 11 10 10 9 9 11 12 14 14 13 15 19 21 21 20 21 24 26 27 26 27 27 25 25 24 22 21
22 24 23 21 20 19 19 19 18 17 17 16 14 13 13 14 13 14 14 13 12 12 13 12 10 9 8 8 9 11 11 10 12 14 15 15 15 15 13 11 9 8 9 10 10 10 10 14 18 20 19 19 21 24 25 25 25 25 24 23 22 21 20
25 24 22 21 21 21 20 18 16 15 15 14 12 11 12 13 13 13 13 12 11 12 13 13 10 8 7 5 6 9 10 11 13 15 16 18 18 19 18 17 15 14 13 12 12 10 10 13 17 19 19 19 19 22 24 24 23 23 23 21 19 18 17
26 25 23 23 23 21 18 16 13 12 12 13 12 11 12 14 14 12 11 11 11 11 12 13 11 8 6 3 5 7 7 10 14 16 17 18 20 20 21 22 22 21 20 18 16 15 15 16 17 18 18 18 19 20 22 23 23 23 22 20 18 17 16
26 26 24 23 21 18 16 14 12 12 12 13 13 13 13 14 13 12 10 10 10 10 11 12 10 7 6 2 5 6 7 10 14 17 18 19 21 21 22 23 23 22 22 20 19 18 18 18 18 19 19 19 20 20 19 20 20 21 21 20 19 18 18
25 24 23 21 19 16 15 14 14 13 13 13 13 13 13 12 11 11 10 9 10 10 10 12 10 7 4 1 4 4 7 11 14 17 18 20 21 21 22 22 22 21 20 20 18 18 18 19 19 19 20 22 23 21 20 19 19 20 22 23 24 23 22
24 23 22 20 19 18 17 16 14 12 11 10 11 13 12 11 10 10 10 9 10 10 10 11 11 7 4 1 4 5 8 12 15 16 18 20 20 21 21 20 20 20 19 18 17 16 17 17 18 19 19 20 19 19 20 22 22 22 23 25 26 27 26
24 24 22 21 21 21 19 16 13 11 9 9 11 13 12 10 10 11 11 11 11 11 11 10 10 8 6 5 6 8 11 14 15 16 18 20 20 20 20 19 18 17 16 16 16 15 15 15 16 18 18 17 16 15 17 22 25 25 26 27 28 29 29
25 24 22 22 22 22 20 17 14 11 10 11 13 14 12 12 13 14 15 15 14 14 14 12 11 11 10 10 11 12 14 16 16 16 19 21 20 19 18 18 17 16 15 14 13 13 14 14 15 16 16 17 16 15 16 19 22 24 25 27 29 31 30
26 25 24 23 22 21 19 16 13 12 12 13 15 15 14 14 14 15 16 17 17 16 16 16 15 14 13 13 14 15 15 16 17 18 19 21 20 18 16 15 15 15 14 12 11 11 12 13 14 14 15 15 15 16 17 18 19 21 23 25 28 30 30

ECMWFFLT1_850_spd_138.txt.gz
Wind_Speed
24 23 22 20 19 18 18 17 15 14 12 10 8 8 9 11 12 13 13 14 14 14 15 15 15 15 15 15 16 16 15 16 16 16 16 15 14 12 12 13 14 14 14 15 16 17 19 23 27 27 25 24 22 20 18 16 17 18 18 17 17 17 16
23 23 22 22 20 20 19 18 16 16 14 11 9 9 11 13 13 13 13 13 13 14 15 15 15 15 16 16 17 17 16 16 16 16 15 14 13 13 14 14 14 15 15 15 15 16 17 20 24 27 28 27 25 22 18 17 17 17 18 18 17 16 17
24 23 23 23 21 21 21 20 18 17 14 12 10 10 11 12 12 12 12 12 13 14 14 15 16 16 16 16 16 16 15 15 15 14 13 12 13 13 13 14 15 16 16 16 16 16 17 19 21 24 26 27 28 26 22 19 18 17 17 16 16 15 15
24 24 24 23 23 22 22 21 19 18 15 11 10 11 11 11 11 11 12 13 14 15 15 16 17 16 15 15 14 13 14 14 13 11 11 11 12 12 12 13 14 15 16 16 17 17 18 18 19 21 23 24 26 26 24 21 17 16 15 14 14 13 13
23 24 23 23 24 24 22 21 20 18 14 11 10 11 11 12 13 13 13 14 14 15 16 17 16 15 14 12 11 11 11 11 10 9 10 10 11 11 11 12 13 14 15 15 17 18 17 16 17 19 22 23 24 25 25 22 18 16 14 13 13 12 11
22 21 21 23 25 23 21 21 21 18 13 11 11 12 13 13 14 14 14 14 14 15 16 15 14 12 11 9 8 9 9 10 10 9 9 10 11 12 11 11 12 13 15 15 16 16 15 14 16 18 20 21 22 24 25 24 22 18 14 13 13 11 10
21 21 22 23 23 21 20 21 20 16 12 11 12 13 13 13 14 14 14 14 15 15 14 13 11 10 8 6 6 8 9 10 11 10 10 11 11 12 12 11 12 13 15 15 15 15 13 13 14 16 18 20 22 23 23 24 23 20 16 15 13 11 10
21 22 22 22 21 20 21 21 18 15 12 11 12 13 14 14 14 14 15 15 15 14 12 10 9 8 7 6 7 9 10 12 12 11 10 11 11 13 12 11 12 14 15 16 16 15 15 14 14 15 16 18 20 22 23 24 23 21 19 18 15 11 11
22 23 22 22 22 21 21 20 18 15 13 13 13 14 15 15 15 15 15 15 14 13 10 8 7 6 6 7 8 9 11 12 12 12 11 11 12 13 13 13 14 16 18 19 19 18 18 18 18 17 15 14 17 20 21 23 23 22 20 19 18 14 12
24 24 23 23 23 22 21 20 19 17 15 14 15 16 17 17 16 16 15 14 12 10 7 5 5 5 5 6 7 8 10 11 11 11 11 11 13 14 15 17 18 19 20 20 20 19 18 18 19 18 17 14 14 17 19 21 23 23 19 19 20 18 16
25 25 24 24 24 22 21 20 20 19 17 16 16 17 18 18 17 16 14 12 9 7 5 4 4 4 5 5 6 7 8 9 10 10 11 12 14 16 17 18 19 19 19 19 18 17 16 16 16 16 16 16 15 15 16 18 21 21 19 19 20 19 18
26 25 25 24 23 22 21 21 21 20 18 17 17 18 18 18 17 15 13 10 7 5 4 4 4 4 4 4 5 6 6 7 9 10 10 11 12 13 14 15 16 16 17 17 16 16 15 15 15 15 15 16 16 16 17 17 20 21 20 20 20 19 19
26 25 25 24 23 22 22 21 21 19 18 17 18 18 17 17 16 14 11 8 6 4 2 3 4 2 2 3 3 4 6 7 8 8 8 9 9 10 11 12 13 14 15 15 14 14 13 13 13 13 13 14 14 14 15 15 18 21 19 18 20 20 20
26 26 24 23 22 21 20 20 19 18 17 18 17 16 16 15 15 13 10 7 5 3 2 3 2 0 1 2 3 4 6 6 6 6 6 7 8 9 10 11 11 12 12 12 12 11 11 10 10 11 11 11 10 10 11 12 14 18 18 17 20 21 20
26 24 22 20 19 19 19 19 18 17 17 17 15 15 15 14 13 10 7 5 5 3 3 2 1 1 1 2 3 4 5 5 5 5 6 7 8 8 9 9 9 10 11 11 10 10 10 10 10 10 10 9 9 8 9 10 12 15 17 18 20 21 20
25 23 21 20 19 19 18 17 17 17 17 16 15 16 15 13 11 8 7 6 5 4 2 2 1 2 2 3 4 4 3 3 4 5 5 6 7 8 9 8 8 10 11 11 10 11 11 11 11 10 10 10 10 9 8 9 11 13 16 18 19 20 20
25 23 21 20 19 18 17 17 17 16 16 16 16 15 14 11 9 8 8 7 6 4 2 1 2 2 2 2 2 2 2 3 4 4 5 5 6 8 8 8 9 11 12 12 13 13 13 13 13 13 13 13 12 11 9 9 11 12 14 16 16 16 17
24 22 20 19 18 18 17 18 17 15 14 15 15 13 12 10 9 9 8 7 5 4 2 1 2 1 1 1 1 1 1 3 4 5 5 5 7 9 9 9 10 11 12 13 14 15 16 16 16 15 16 16 15 14 13 12 11 11 12 14 14 14 15
23 21 20 19 18 19 19 17 15 13 14 15 14 11 10 11 11 10 8 7 5 4 2 2 1 0 1 2 1 2 3 4 5 5 5 7 8 9 10 10 10 11 12 14 15 16 17 16 16 17 17 18 17 16 15 14 13 12 12 12 13 13 14
22 20 20 19 19 19 17 15 14 14 14 14 12 11 12 12 11 9 8 6 5 4 3 3 2 2 3 3 2 3 4 5 6 6 6 8 8 9 10 10 11 11 13 14 16 16 17 18 17 17 18 19 18 17 17 16 15 14 13 13 14 15 15
22 21 20 20 19 18 15 14 15 15 13 12 12 13 13 11 10 9 7 6 5 5 4 5 4 4 5 4 4 5 5 5 7 7 7 7 8 9 10 10 11 12 13 15 17 17 18 19 19 19 20 21 20 20 20 19 18 17 17 17 18 19 19
22 21 20 19 17 16 15 15 15 14 12 13 15 14 13 11 10 9 8 7 6 6 6 6 6 6 6 5 5 6 5 6 7 7 7 7 7 7 8 9 11 12 14 16 18 18 19 20 21 21 22 22 22 22 22 22 22 22 22 22 22 23 23
21 20 18 16 16 16 16 16 15 13 13 15 15 14 12 11 10 9 8 7 7 7 7 8 8 8 8 6 6 6 5 5 6 6 7 7 7 6 7 9 10 12 14 16 16 17 19 21 23 24 24 23 23 24 24 25 25 26 25 24 23 23 24
19 18 16 16 16 16 17 16 14 14 16 16 15 14 13 12 11 10 9 8 8 8 8 9 9 9 8 7 6 5 5 4 4 4 5 5 5 5 7 9 10 11 13 15 15 15 18 20 22 24 24 24 24 24 25 26 26 26 24 23 23 23 24
18 18 17 17 17 17 17 15 14 16 17 17 16 15 14 13 12 11 9 9 8 8 9 9 9 9 8 7 6 4 3 2 2 1 2 2 4 4 5 7 9 9 12 14 14 15 16 17 20 22 23 23 23 24 25 25 25 25 24 23 24 24 25
19 18 18 18 20 20 17 15 15 17 18 18 17 16 14 13 12 11 10 9 9 9 9 9 9 7 6 5 3 1 1 1 1 1 1 2 4 5 4 6 7 8 11 13 13 13 13 13 15 19 21 21 21 22 23 24 23 23 23 23 24 25 26
19 19 19 21 22 20 17 16 18 19 19 19 18 16 15 14 12 11 10 9 9 9 9 8 7 5 4 3 2 2 2 2 2 2 3 4 6 6 5 6 6 7 9 11 12 11 11 11 13 15 18 19 20 21 22 22 22 21 21 20 21 23 24
19 22 24 23 22 19 16 17 20 20 20 19 18 17 15 14 13 12 11 9 9 8 8 7 5 5 6 6 6 3 1 2 3 4 5 6 7 7 6 6 6 7 8 9 10 9 10 11 12 13 16 19 21 22 22 22 22 21 20 19 19 19 20
22 26 25 23 21 19 18 19 21 21 21 20 19 17 15 14 13 13 12 10 8 7 6 6 5 5 6 8 8 5 4 5 7 8 8 7 7 7 7 6 5 5 5 7 9 9 8 9 11 12 15 17 20 22 22 22 21 20 20 19 18 17 17
26 27 25 23 21 19 19 21 21 21 21 20 18 17 16 15 14 13 12 10 8 6 5 5 4 3 5 7 7 4 4 6 8 10 11 11 10 10 9 7 6 6 7 9 10 8 7 9 11 13 15 16 18 20 22 21 19 18 17 16 16 14 13
27 26 24 22 20 20 21 22 20 19 19 18 18 17 16 16 15 14 12 10 8 7 6 6 4 1 3 7 7 3 4 6 8 10 12 13 14 14 14 13 12 11 11 11 9 8 10 13 15 16 16 17 18 19 20 19 17 16 14 13 12 12 12
27 26 24 22 20 21 22 21 19 17 16 16 17 17 17 16 15 14 12 11 9 8 7 8 5 2 2 6 5 2 4 5 8 11 13 14 15 15 15 14 13 12 12 11 11 11 13 14 16 17 18 19 20 20 20 18 18 17 15 13 12 11 12
27 26 24 22 21 21 20 18 17 15 14 15 16 18 18 17 16 15 13 12 11 9 8 8 7 3 2 4 3 3 5 6 8 11 13 14 15 14 14 13 13 12 11 11 12 12 12 12 13 14 17 20 21 20 19 19 20 20 19 19 18 15 13
26 24 23 22 21 20 18 16 15 14 14 15 17 19 19 18 16 15 14 13 12 11 9 8 7 4 2 2 3 5 6 8 10 12 13 14 14 14 13 12 11 10 9 10 10 10 11 11 11 12 14 17 19 18 17 19 21 21 21 22 21 19 16
25 24 24 23 22 21 18 16 15 15 15 16 18 19 19 17 16 16 16 15 14 13 11 9 7 4 1 3 7 8 9 10 11 12 13 14 14 13 12 11 10 9 8 8 9 9 10 10 11 12 12 13 14 14 16 18 20 21 23 23 23 23 22
26 26 25 23 22 21 18 16 15 14 14 15 18 18 17 17 16 17 17 17 16 15 13 11 8 6 5 8 11 11 11 12 12 12 12 13 13 12 11 9 8 7 7 6 7 7 8 9 10 11 10 10 10 11 13 15 17 20 22 24 25 26 26
27 26 24 23 22 20 18 16 14 11 9 12 17 18 17 17 17 18 19 19 18 17 15 13 11 10 11 13 13 12 11 12 12 11 11 11 11 10 9 8 6 6 5 5 5 6 7 8 8 8 8 9 9 9 11 14 16 18 20 23 25 27 27

ECMWFFLT1_850_spd_141.txt.gz
Wind_Speed
26 24 22 22 21 20 19 17 16 18 18 15 13 12 13 12 11 10 9 9 10 11 12 13 14 15 15 16 16 17 17 18 19 18 17 17 16 14 13 12 13 13 14 15 16 17 20 25 28 26 24 23 22 19 18 18 19 19 21 21 21 20 19
25 22 21 22 22 20 19 18 18 19 18 14 13 13 12 13 12 10 10 10 10 11 12 13 14 15 16 16 16 17 17 18 17 17 16 16 15 14 13 13 13 13 14 14 14 15 17 21 26 28 28 27 26 22 19 19 20 19 19 20 20 19 19
25 23 22 22 22 21 19 19 19 19 17 15 14 13 13 13 12 11 10 10 11 11 13 14 14 15 16 16 17 17 16 16 15 15 14 13 12 11 11 12 12 13 15 15 16 17 18 20 23 26 26 27 29 26 22 21 21 19 16 16 17 17 17
24 23 24 24 23 21 20 20 20 19 18 16 16 15 15 14 13 12 10 10 11 12 13 14 14 15 16 17 17 16 15 14 13 13 12 12 11 11 11 11 11 12 13 15 17 18 19 20 21 23 24 25 28 28 25 23 22 19 16 14 15 16 15
22 23 24 24 23 22 22 22 21 20 19 18 17 17 16 15 14 12 10 10 11 13 13 14 14 15 15 15 15 14 13 13 12 12 12 13 12 11 11 11 11 11 12 13 15 16 18 19 20 22 22 23 26 28 28 25 22 19 16 14 14 15 15
21 23 24 24 22 22 22 23 22 21 21 20 19 18 17 16 15 11 10 11 12 13 13 14 14 14 14 13 13 12 12 12 11 12 13 13 12 11 11 12 13 12 13 14 15 16 18 19 21 22 23 24 26 29 30 26 23 21 17 14 15 15 15
21 22 23 23 22 22 23 23 23 22 21 20 19 18 17 16 15 12 11 11 12 13 13 13 14 13 13 12 12 12 11 11 11 12 13 13 12 12 12 14 14 14 14 15 16 17 19 20 21 23 25 26 26 28 29 27 25 23 19 17 16 16 16
22 22 22 22 22 23 23 23 23 22 22 20 19 18 17 16 15 12 12 12 12 13 13 13 14 13 13 12 12 11 11 11 12 12 13 13 13 13 14 15 16 16 17 18 19 19 20 20 21 23 24 25 26 27 28 27 25 23 21 21 18 17 18
23 22 21 21 22 23 24 23 22 22 22 20 19 18 17 16 15 13 13 13 12 13 13 13 14 14 13 11 10 10 9 10 11 12 13 14 14 15 16 17 18 19 20 21 21 21 20 20 20 21 22 23 24 25 26 27 26 24 23 23 22 20 20
23 22 21 21 22 24 24 23 22 23 22 20 19 18 17 16 15 15 14 14 13 13 13 13 13 13 11 9 9 8 8 10 10 11 13 14 15 16 17 18 19 20 21 21 21 20 20 19 18 18 19 20 20 22 23 25 26 25 24 23 23 24 22
22 21 20 21 22 25 25 23 23 23 22 20 19 18 16 16 16 16 15 14 13 13 13 13 12 11 9 8 8 7 8 9 10 11 12 14 15 16 18 19 19 18 18 17 17 16 15 15 15 15 16 17 17 18 20 24 26 26 24 23 22 24 24
23 21 20 22 24 25 25 23 23 22 21 20 18 17 17 18 17 17 16 14 12 12 12 11 10 8 7 7 7 7 8 9 10 11 12 13 14 15 16 16 15 14 14 14 13 13 12 11 11 12 12 14 14 16 18 20 25 25 23 23 22 23 25
22 20 21 23 24 25 24 23 22 22 20 19 18 18 19 19 18 18 15 13 12 11 10 9 7 6 5 6 6 7 7 8 9 11 11 12 13 13 14 13 13 13 13 13 12 12 12 11 11 11 11 11 11 13 14 15 20 23 21 20 22 24 26
22 21 22 23 24 24 22 22 22 21 19 19 19 20 20 20 18 17 14 13 11 9 8 6 4 4 5 6 6 7 7 7 8 9 10 12 12 12 12 12 12 13 12 12 11 11 11 12 12 12 11 12 11 11 13 13 16 21 21 19 21 23 23
23 22 23 23 23 22 22 21 21 20 20 20 21 21 21 19 17 14 12 12 10 7 5 4 3 3 4 5 6 6 7 8 8 9 10 11 11 11 9 9 10 12 12 12 11 12 13 13 13 13 13 13 13 12 13 14 15 19 21 19 19 19 18
23 23 23 23 22 21 21 21 20 20 21 21 21 21 19 17 14 12 10 10 8 6 4 3 3 3 4 5 5 5 6 8 8 9 9 10 10 8 7 7 9 11 12 12 13 13 14 15 15 15 16 16 16 15 15 16 16 17 19 19 19 19 18
24 23 23 22 21 21 21 21 21 21 21 20 20 19 17 15 13 11 10 9 7 5 3 2 3 4 4 4 4 5 6 7 8 8 8 8 8 8 7 7 9 11 12 13 13 14 15 16 16 17 17 17 17 17 16 16 16 16 17 17 17 17 18
24 23 23 22 22 22 21 21 21 21 19 19 18 17 15 14 11 10 9 9 6 3 2 3 3 4 4 3 3 5 6 6 6 6 6 6 8 9 8 8 9 11 12 13 14 15 15 15 16 16 17 17 17 17 16 15 14 14 14 16 16 16 15
25 24 24 23 22 21 20 20 19 18 18 17 16 14 13 12 10 9 9 8 5 3 2 3 3 4 3 3 4 5 6 5 4 4 6 7 8 10 10 10 10 11 12 13 14 15 15 15 16 17 17 17 18 18 17 16 15 14 14 15 16 17 16
25 25 24 23 21 20 19 19 18 17 17 16 14 13 11 10 10 10 9 6 4 3 2 2 2 2 2 3 4 5 6 6 5 6 8 9 9 9 10 11 11 12 12 13 14 14 15 16 17 18 18 18 18 18 17 17 17 16 15 16 17 19 19
26 25 23 21 20 19 19 18 17 17 15 13 12 10 10 10 11 10 7 5 3 2 2 0 2 2 2 3 3 5 6 7 7 8 9 10 9 9 9 11 12 12 12 13 13 14 15 16 17 18 19 18 18 17 17 18 18 18 18 19 20 21 21
25 24 22 21 20 20 19 17 16 14 11 11 11 11 11 12 10 8 7 5 4 3 2 2 3 3 3 3 2 4 5 6 6 7 8 9 8 8 8 9 11 12 13 13 13 14 16 17 19 20 20 19 18 17 17 18 18 19 21 22 23 23 24
25 23 22 21 21 20 17 16 14 11 11 11 12 13 13 11 9 8 7 6 5 4 4 4 3 3 3 3 3 3 4 5 6 6 7 8 7 7 8 8 10 12 12 12 14 15 17 19 21 21 21 20 18 17 17 18 19 20 22 24 25 25 25
25 23 21 20 19 18 16 15 13 12 12 13 14 13 12 11 10 9 7 6 6 6 6 5 4 3 3 3 2 2 3 5 6 6 7 7 6 7 7 7 9 11 12 12 14 16 17 18 20 21 21 20 19 18 19 19 19 20 21 23 24 25 25
24 22 20 19 17 16 15 15 14 13 14 15 15 14 12 11 10 9 8 7 7 7 6 5 4 3 3 2 1 2 3 5 6 6 7 7 5 5 5 5 8 10 11 12 14 15 15 17 19 20 19 19 19 19 20 20 21 21 21 22 23 23 24
22 21 19 17 16 15 15 16 15 15 16 16 16 14 13 12 11 9 8 7 7 7 7 5 4 3 2 1 2 4 5 6 7 7 7 6 4 3 4 4 6 8 9 11 12 13 13 14 16 17 17 17 18 18 19 19 20 20 21 21 21 22 23
21 20 18 16 15 16 17 17 15 16 17 18 17 15 14 12 11 10 9 8 8 8 7 5 4 3 2 2 2 4 5 6 7 6 5 4 3 2 2 2 4 7 8 9 10 10 11 13 14 15 15 16 17 17 17 18 18 18 19 19 20 20 21
21 19 17 16 16 17 18 17 16 17 19 18 17 15 14 12 11 10 9 9 8 7 7 6 4 3 3 4 3 2 3 3 4 4 3 3 3 1 0 1 3 5 7 7 8 10 11 12 13 14 15 16 17 18 18 19 19 19 18 18 19 19 19
21 19 17 17 18 19 18 16 17 19 20 19 17 15 14 13 11 11 10 9 8 7 6 6 5 5 6 7 6 5 4 3 2 2 1 2 3 3 2 1 2 4 5 6 8 10 10 11 12 13 14 16 18 19 20 21 21 19 18 18 18 18 18
21 19 18 18 20 20 17 15 18 20 20 19 17 16 14 13 12 11 10 9 7 6 5 6 6 6 8 9 7 5 4 3 2 1 1 2 2 2 2 2 2 4 5 6 7 8 9 11 13 13 13 15 17 18 20 21 20 18 17 16 16 15 16
21 20 20 21 22 20 17 17 19 20 20 19 17 16 14 13 12 11 9 8 6 4 4 6 7 6 8 8 7 4 3 2 1 3 4 5 6 7 7 7 6 5 5 6 7 7 9 11 13 13 14 16 17 19 20 19 18 17 15 13 12 12 13
20 21 22 23 22 18 16 19 20 20 19 18 17 16 15 13 12 11 10 8 6 4 3 5 6 5 7 7 5 3 2 1 1 3 5 7 8 8 8 8 7 7 7 7 7 8 8 10 12 13 14 17 19 21 21 19 18 17 14 11 10 9 10
21 22 22 21 19 14 14 19 21 20 18 17 16 16 15 14 12 11 10 8 7 5 3 3 5 4 5 5 3 1 0 1 1 3 5 6 6 7 7 8 8 8 7 7 7 7 7 9 11 13 14 16 20 22 21 21 21 19 17 14 11 9 10
23 23 22 21 18 14 14 18 20 19 18 17 16 16 16 15 14 12 11 9 8 7 4 2 3 3 4 3 2 2 2 2 3 3 4 5 5 5 6 7 7 7 6 6 6 6 6 8 10 11 12 15 19 20 21 22 22 19 17 16 13 10 9
25 24 23 21 18 16 16 18 18 18 17 16 16 16 17 16 15 14 13 11 10 9 7 4 3 2 2 2 3 3 3 4 4 4 3 3 4 4 5 6 6 5 5 5 5 6 6 7 9 10 12 14 16 18 20 22 22 19 17 16 15 13 10
25 24 22 19 17 17 18 17 15 15 15 15 16 17 18 18 17 15 14 13 12 11 9 7 4 2 2 3 4 5 5 5 4 3 3 3 3 3 3 4 3 3 3 3 4 5 5 6 8 10 11 13 14 16 18 21 22 20 17 17 18 17 16
25 22 20 18 17 17 16 15 13 12 13 14 17 19 20 19 18 17 15 15 14 13 12 9 7 4 4 5 6 6 5 5 4 4 3 2 2 2 2 1 1 0 1 2 3 3 4 5 7 8 9 10 12 15 17 20 22 21 18 19 20 20 19